Location: Arrodets-la-Barthe
(43.0306°N, 0.2829°E)
Time: 10:37:55
(UTC+00:00)

Iridium 4 Rocket - Pass Details

Date: 01 June 2022
Orbit: 585 x 902 km, 86.9° (Epoch: 01 July)

Event Time Altitude Azimuth Distance (km) Brightness Sun altitude
Rises 22:45:16 0° 352° (N) 3,081 8.0 -22.8°
Reaches altitude 10° 22:47:31 10° 347° (NNW) 2,207 7.0 -22.9°
Maximum altitude 22:52:17 51° 272° (W) 954 4.0 -23.1°
Enters shadow 22:53:49 38° 224° (SW) 1,168 4.2 -23.2°
